Location: Lugrin
(46.4033°N, 6.6674°E)
Time: 06:10:16
(UTC+00:00)

Cosmos 2151 Rocket - Pass Details

Date: 18 September 2020
Orbit: 618 x 642 km, 82.5° (Epoch: 23 October)

Event Time Altitude Azimuth Distance (km) Brightness Sun altitude
Rises 18:43:51 0° 164° (SSE) 2,899 6.7 -12.0°
Reaches altitude 10° 18:46:12 10° 155° (SSE) 2,001 5.8 -12.4°
Maximum altitude 18:50:13 34° 91° (E) 1,036 4.2 -13.0°
Drops below altitude 10° 18:54:17 10° 26° (NNE) 2,030 6.1 -13.7°
Sets 18:56:41 0° 18° (NNE) 2,948 7.0 -14.1°
